Flag for Switzerland Weather past 2 weeks in Olten, Solothurn, Switzerland

Now
52 °F

Cool.


Feels Like: 47 °F
Forecast: 39 / 44 °F
Wind: 14 mph from West

Location: Wynau

Current Time: Oct 21, 2014 at 11:58:36 PM

Latest Report: Oct 21, 2014 at 10:00 PM


Visibility: N/A

Pressure: 30.02 "Hg

Humidity: 62%

Dew point: 39 °F

Location of OltenLocation

Historic Weather in Olten — Graph

°F

Olten temperature yesterday

Maximum temperature yesterday: 69 °F (at 2:00 PM)
Minimum temperature yesterday: 48 °F (at 7:00 AM)
Average temperature yesterday: 58 °F

Past Weeks' High & Low Weather Summary

 TemperatureHumidityPressure
High73 °F (Oct 9, 4:00 PM)100% (Oct 7, 1:00 AM)30.28 "Hg (Oct 7, 1:00 AM)
Low48 °F (Oct 18, 2:00 AM)50% (Oct 21, 3:00 PM)29.76 "Hg (Oct 15, 5:00 PM)
Average58 °F91%29.95 "Hg
* Reported Oct 6 10:00 PM — Oct 21 10:00 PM, Olten, Weather by CustomWeather, © 2014

Note: Actual official high and low records may vary slightly from our data, if they occured in-between our weather recording intervals... More about our weather records

Advertising

Olten weather history for previous 24 hours

 ConditionsComfort  
Time TempWeatherWind HumidityBarometerVisibility
10:00 PM
Oct 21
52 °FCool.14 mph62%30.02 "HgN/A
9:00 PM50 °FCool.12 mph78%29.93 "HgN/A
8:00 PM56 °FCool.16 mph74%29.84 "HgN/A
7:00 PM59 °FCool.8 mph81%29.77 "HgN/A
6:00 PM59 °FCool.12 mph81%29.80 "HgN/A
5:00 PM62 °FCool.9 mph66%29.82 "HgN/A
4:00 PM65 °FMild.12 mph56%29.84 "HgN/A
3:00 PM67 °FMild.14 mph50%29.87 "HgN/A
2:00 PM65 °FMild.13 mph56%29.89 "HgN/A
1:00 PM68 °FMild.13 mph63%29.90 "HgN/A
12:00 PM65 °FMild.12 mph75%29.93 "HgN/A
11:00 AM61 °FCool.3 mph89%29.97 "HgN/A
10:00 AM60 °FCool.2 mph94%29.98 "HgN/A
9:00 AM58 °FCool.2 mph98%29.99 "HgN/A
8:00 AM57 °FCool.2 mph99%29.99 "HgN/A
7:00 AM58 °FCool.3 mph97%29.99 "HgN/A
6:00 AM57 °FCool.1 mph99%30.00 "HgN/A
5:00 AM57 °FCool.3 mph98%30.01 "HgN/A
4:00 AM58 °FCool.1 mph99%30.02 "HgN/A
3:00 AM58 °FCool.2 mph98%30.03 "HgN/A
2:00 AM59 °FCool.3 mph96%30.05 "HgN/A
1:00 AM58 °FCool.2 mph99%30.04 "HgN/A
12:00 AM60 °FCool.8 mph94%30.05 "HgN/A
11:00 PM
Oct 20
59 °FCool.2 mph98%30.08 "HgN/A
Weather by CustomWeather, © 2014

See weather overviewHow to use our weather pages